Weather History for Burnet, TX

Change the Weather History Date:

Monday, March 21, 2011

  Actual Average Record
Temperature  
Mean Temperature 72 °F -  
Max Temperature 82 °F 67 °F 86 °F (1997)
Min Temperature 62 °F 47 °F 36 °F (1998)
Cooling Degree Days 6    
Growing Degree Days 22 (Base 50)    
Moisture  
Dew Point 58 °F    
Average Humidity 71    
Maximum Humidity 88    
Minimum Humidity 39    
Precipitation  
Precipitation 0.00 in - - ()
Sea Level Pressure  
Sea Level Pressure 30.08 in    
Wind  
Wind Speed 12 mph (SSE)    
Max Wind Speed 20 mph    
Max Gust Speed 29 mph    
Visibility 10 miles    
Events      
Averages and records for this station are not official NWS values.
T = Trace of Precipitation, MM = Missing Value Source: NWS Daily Summary

Daily Weather History Graph

Daily Weather History Graph

Search for Another Location

Airport:

Trip Planner

Search our weather history database for the weather conditions in past years. The results will help you decide how hot, cold, wet, or windy it might be!

Date:

Astronomy

Mar. 21, 2011 Rise Set
Actual Time 7:35 AM CDT 7:44 PM CDT
Civil Twilight 7:11 AM CDT 8:08 PM CDT
Nautical Twilight 6:43 AM CDT 8:37 PM CDT
Astronomical Twilight 6:15 AM CDT 9:05 PM CDT
Moon 10:23 PM CDT (3/21) 8:33 AM CDT (3/21)
Length of Visible Light 12h 57m
Length of Day
12h 09m
Waning Gibbous, 94% of the Moon is Illuminated
Mar 21
Waning Gibbous
Mar 26
Last Quarter
Apr 3
New
Apr 11
First Quarter
Apr 17
Full

Hourly Weather History & Observations

Time (CDT) Temp. Heat Index Dew Point Humidity Pressure Visibility Wind Dir Wind Speed Gust Speed Precip Events Conditions
12:53 AM 64.9 °F - 57.9 °F 78% 30.10 in 10.0 mi South 12.7 mph 19.6 mph N/A   Overcast
1:02 AM 64.4 °F - 57.2 °F 77% 30.13 in 10.0 mi South 13.8 mph 21.9 mph N/A   Mostly Cloudy
1:44 AM 62.6 °F - 57.2 °F 82% 30.14 in 10.0 mi South 11.5 mph 17.3 mph N/A   Mostly Cloudy
1:53 AM 63.0 °F - 57.0 °F 81% 30.10 in 10.0 mi South 11.5 mph 19.6 mph N/A   Mostly Cloudy
2:53 AM 63.0 °F - 57.0 °F 81% 30.09 in 10.0 mi South 10.4 mph - N/A   Overcast
3:53 AM 64.0 °F - 57.9 °F 80% 30.07 in 10.0 mi South 11.5 mph 18.4 mph N/A   Overcast
5:30 AM 64.4 °F - 59.0 °F 83% 30.10 in 10.0 mi South 9.2 mph 17.3 mph N/A   Overcast
5:53 AM 64.0 °F - 59.0 °F 84% 30.06 in 10.0 mi South 6.9 mph - N/A   Overcast
6:13 AM 64.4 °F - 59.0 °F 83% 30.11 in 10.0 mi South 9.2 mph - N/A   Overcast
6:53 AM 64.0 °F - 60.1 °F 87% 30.08 in 10.0 mi South 11.5 mph - N/A   Overcast
7:30 AM 64.4 °F - 60.8 °F 88% 30.13 in 10.0 mi SSE 6.9 mph - N/A   Overcast
7:45 AM 64.4 °F - 60.8 °F 88% 30.13 in 10.0 mi SSE 6.9 mph - N/A   Overcast
7:53 AM 64.0 °F - 60.1 °F 87% 30.10 in 10.0 mi SSE 5.8 mph - N/A   Overcast
8:08 AM 64.4 °F - 60.8 °F 88% 30.14 in 10.0 mi SSE 5.8 mph - N/A   Overcast
8:40 AM 64.4 °F - 60.8 °F 88% 30.14 in 10.0 mi SSE 6.9 mph - N/A   Overcast
8:53 AM 64.9 °F - 60.1 °F 84% 30.11 in 10.0 mi SSE 9.2 mph - N/A   Overcast
9:37 AM 64.4 °F - 60.8 °F 88% 30.15 in 10.0 mi South 9.2 mph - N/A   Overcast
9:53 AM 64.9 °F - 60.1 °F 84% 30.13 in 10.0 mi South 8.1 mph 17.3 mph N/A   Overcast
10:53 AM 69.1 °F - 57.9 °F 68% 30.12 in 10.0 mi South 16.1 mph 23.0 mph N/A   Overcast
11:53 AM 71.1 °F - 57.0 °F 61% 30.11 in 10.0 mi South 16.1 mph 28.8 mph N/A   Overcast
12:26 PM 69.8 °F - 57.2 °F 64% 30.15 in 10.0 mi South 16.1 mph 25.3 mph N/A   Overcast
12:34 PM 71.6 °F - 57.2 °F 60% 30.15 in 10.0 mi South 16.1 mph 26.5 mph N/A   Overcast
12:53 PM 72.0 °F - 55.9 °F 57% 30.10 in 10.0 mi South 19.6 mph 28.8 mph N/A   Mostly Cloudy
1:53 PM 75.0 °F - 55.0 °F 50% 30.08 in 10.0 mi South 18.4 mph 27.6 mph N/A   Partly Cloudy
2:53 PM 79.0 °F - 55.0 °F 44% 30.04 in 10.0 mi South 13.8 mph 26.5 mph N/A   Clear
3:53 PM 81.0 °F 80.5 °F 54.0 °F 39% 29.99 in 10.0 mi SSE 15.0 mph 27.6 mph N/A   Clear
4:53 PM 79.0 °F - 54.0 °F 42% 29.98 in 10.0 mi South 16.1 mph 26.5 mph N/A   Clear
5:53 PM 78.1 °F - 54.0 °F 43% 29.97 in 10.0 mi SSE 16.1 mph 27.6 mph N/A   Clear
7:53 PM 73.0 °F - 55.9 °F 55% 29.97 in 10.0 mi SSE 10.4 mph 17.3 mph N/A   Unknown
8:53 PM 70.0 °F - 55.9 °F 61% 29.99 in 10.0 mi SSE 11.5 mph 19.6 mph N/A   Clear
9:54 PM 69.1 °F - 55.9 °F 63% 29.99 in - SSE 12.7 mph 19.6 mph N/A   Unknown
10:53 PM 66.9 °F - 55.0 °F 66% 29.99 in 10.0 mi SSE 12.7 mph 24.2 mph N/A   Clear
11:53 PM 64.9 °F - 54.0 °F 68% 29.99 in 10.0 mi South 13.8 mph 24.2 mph N/A   Clear